Time,TemperatureF,DewpointF,PressureIn,WindDirection,WindDirectionDegrees,WindSpeedMPH,WindSpeedGustMPH,Humidity,HourlyPrecipIn,Conditions,Clouds,dailyrainin,SoftwareType,DateUTC
2013-05-27 09:06:00,51.8,47.7,0.00,ESE,113,0.0,0.0,86,0.00,,,0.00,WUHU216HW,2013-05-27 16:06:00,
2013-05-27 09:11:00,51.8,47.7,0.00,ESE,113,0.0,0.0,86,0.00,,,0.00,WUHU216HW,2013-05-27 16:11:00,
2013-05-27 09:16:00,52.0,47.9,0.00,ESE,113,0.0,0.0,86,0.00,,,0.00,WUHU216HW,2013-05-27 16:16:00,
2013-05-27 09:21:00,52.0,47.9,0.00,East,90,0.0,0.0,86,0.00,,,0.00,WUHU216HW,2013-05-27 16:21:00,
2013-05-27 09:26:00,52.2,48.1,0.00,SSE,158,0.4,0.4,86,0.00,,,0.00,WUHU216HW,2013-05-27 16:26:00,
2013-05-27 09:31:00,52.4,48.2,0.00,SE,135,0.0,0.9,86,0.00,,,0.00,WUHU216HW,2013-05-27 16:31:00,
2013-05-27 09:36:00,52.2,48.1,0.00,SE,135,0.0,0.9,86,0.00,,,0.00,WUHU216HW,2013-05-27 16:36:00,
2013-05-27 09:41:00,52.4,48.2,0.00,SE,135,0.0,0.0,86,0.00,,,0.00,WUHU216HW,2013-05-27 16:41:00,
2013-05-27 09:46:00,52.6,48.4,0.00,SSE,158,0.0,0.0,86,0.00,,,0.00,WUHU216HW,2013-05-27 16:46:00,
2013-05-27 09:51:00,52.7,48.6,0.00,SSE,158,0.0,0.0,86,0.00,,,0.00,WUHU216HW,2013-05-27 16:51:00,
2013-05-27 09:56:00,52.7,48.6,0.00,SSE,158,0.0,0.7,86,0.00,,,0.00,WUHU216HW,2013-05-27 16:56:00,
2013-05-27 10:01:00,52.9,49.2,0.00,South,180,0.0,1.8,87,0.00,,,0.00,WUHU216HW,2013-05-27 17:01:00,
2013-05-27 10:06:00,52.7,49.0,0.00,SSW,203,0.9,1.8,87,0.00,,,0.00,WUHU216HW,2013-05-27 17:06:00,
2013-05-27 10:11:00,52.9,49.4,0.00,West,270,0.0,1.6,88,0.00,,,0.00,WUHU216HW,2013-05-27 17:11:00,
2013-05-27 10:16:00,52.9,49.4,0.00,WNW,293,0.0,1.6,88,0.00,,,0.00,WUHU216HW,2013-05-27 17:16:00,
2013-05-27 10:21:00,52.9,49.8,0.00,NW,315,0.0,1.1,89,0.00,,,0.00,WUHU216HW,2013-05-27 17:21:00,
2013-05-27 10:26:00,52.9,49.8,0.00,NW,315,0.2,1.8,89,0.00,,,0.00,WUHU216HW,2013-05-27 17:26:00,
2013-05-27 10:31:00,52.9,49.8,0.00,NW,315,0.2,1.8,89,0.00,,,0.00,WUHU216HW,2013-05-27 17:31:00,
2013-05-27 10:36:00,53.3,50.1,0.00,NNW,338,0.2,1.3,89,0.00,,,0.00,WUHU216HW,2013-05-27 17:36:00,
2013-05-27 10:41:00,53.1,49.6,0.00,SSW,203,0.0,2.0,88,0.00,,,0.00,WUHU216HW,2013-05-27 17:41:00,
2013-05-27 10:46:00,53.3,50.1,0.00,WNW,293,2.5,2.5,89,0.00,,,0.00,WUHU216HW,2013-05-27 17:46:00,
2013-05-27 10:51:00,53.3,50.1,0.00,SW,225,0.7,2.7,89,0.00,,,0.00,WUHU216HW,2013-05-27 17:51:00,
2013-05-27 10:56:00,53.3,50.1,0.00,NNW,338,1.6,2.7,89,0.00,,,0.00,WUHU216HW,2013-05-27 17:56:00,
2013-05-27 11:01:00,53.3,50.1,0.00,NNW,338,0.0,2.5,89,0.00,,,0.00,WUHU216HW,2013-05-27 18:01:00,
2013-05-27 11:06:00,53.6,50.5,0.00,ESE,113,0.2,1.1,89,0.00,,,0.00,WUHU216HW,2013-05-27 18:06:00,
2013-05-27 11:11:00,53.8,50.7,0.00,ESE,113,0.0,1.1,89,0.00,,,0.00,WUHU216HW,2013-05-27 18:11:00,
2013-05-27 11:16:00,53.8,50.7,0.00,SSE,158,0.4,2.0,89,0.00,,,0.00,WUHU216HW,2013-05-27 18:16:00,
2013-05-27 11:21:00,53.6,50.1,0.00,NNW,338,0.0,2.0,88,0.00,,,0.00,WUHU216HW,2013-05-27 18:21:00,
2013-05-27 11:26:00,53.8,50.3,0.00,SSW,203,0.0,1.8,88,0.00,,,0.00,WUHU216HW,2013-05-27 18:26:00,
2013-05-27 11:31:00,53.8,50.7,0.00,WNW,293,3.4,3.4,89,0.00,,,0.00,WUHU216HW,2013-05-27 18:31:00,
2013-05-27 11:36:00,54.0,50.9,0.00,NW,315,0.0,3.4,89,0.00,,,0.00,WUHU216HW,2013-05-27 18:36:00,
2013-05-27 11:41:00,54.4,51.5,0.00,NW,315,2.0,2.0,90,0.00,,,0.00,WUHU216HW,2013-05-27 18:41:00,
2013-05-27 11:46:00,54.4,51.2,0.00,South,180,0.9,2.2,89,0.00,,,0.00,WUHU216HW,2013-05-27 18:46:00,
2013-05-27 11:51:00,54.4,51.2,0.00,NW,315,0.0,3.1,89,0.00,,,0.00,WUHU216HW,2013-05-27 18:51:00,
2013-05-27 11:56:00,54.5,51.3,0.00,NNW,338,0.9,3.4,89,0.00,,,0.00,WUHU216HW,2013-05-27 18:56:00,
2013-05-27 12:01:00,54.4,50.9,0.00,North,0,0.7,3.8,88,0.00,,,0.00,WUHU216HW,2013-05-27 19:01:00,
2013-05-27 12:06:00,54.4,51.2,0.00,NNW,338,1.6,3.8,89,0.00,,,0.00,WUHU216HW,2013-05-27 19:06:00,
2013-05-27 12:11:00,54.4,50.9,0.00,West,270,0.0,1.8,88,0.00,,,0.00,WUHU216HW,2013-05-27 19:11:00,
2013-05-27 12:16:00,54.4,50.9,0.00,WNW,293,0.2,1.1,88,0.00,,,0.00,WUHU216HW,2013-05-27 19:16:00,
2013-05-27 12:21:00,54.4,50.9,0.00,WNW,293,3.1,3.6,88,0.00,,,0.00,WUHU216HW,2013-05-27 19:21:00,
2013-05-27 12:26:00,54.4,51.2,0.00,NNW,338,2.5,3.6,89,0.00,,,0.00,WUHU216HW,2013-05-27 19:26:00,
2013-05-27 12:31:00,54.4,51.2,0.00,WNW,293,0.4,4.0,89,0.00,,,0.00,WUHU216HW,2013-05-27 19:31:00,
2013-05-27 12:36:00,54.2,50.7,0.00,SSW,203,1.1,4.0,88,0.00,,,0.00,WUHU216HW,2013-05-27 19:36:00,
2013-05-27 12:41:00,54.4,51.2,0.00,NNW,338,0.0,2.0,89,0.00,,,0.00,WUHU216HW,2013-05-27 19:41:00,
2013-05-27 12:46:00,54.5,51.3,0.00,NNW,338,1.1,2.0,89,0.00,,,0.00,WUHU216HW,2013-05-27 19:46:00,
2013-05-27 12:51:00,54.5,51.0,0.00,NNW,338,0.0,1.1,88,0.00,,,0.00,WUHU216HW,2013-05-27 19:51:00,
2013-05-27 12:56:00,54.5,51.0,0.00,SSW,203,0.4,0.7,88,0.00,,,0.00,WUHU216HW,2013-05-27 19:56:00,
2013-05-27 13:01:00,54.7,51.2,0.00,NW,315,1.6,1.6,88,0.00,,,0.00,WUHU216HW,2013-05-27 20:01:00,
2013-05-27 13:06:00,54.7,50.9,0.00,NW,315,0.9,2.0,87,0.00,,,0.00,WUHU216HW,2013-05-27 20:06:00,
2013-05-27 13:11:00,54.5,50.8,0.00,NW,315,0.0,2.0,87,0.00,,,0.00,WUHU216HW,2013-05-27 20:11:00,
2013-05-27 13:16:00,54.7,51.2,0.00,WSW,248,0.0,2.0,88,0.00,,,0.00,WUHU216HW,2013-05-27 20:16:00,
2013-05-27 13:21:00,54.9,51.7,0.00,NNW,338,0.2,2.0,89,0.00,,,0.00,WUHU216HW,2013-05-27 20:21:00,
2013-05-27 13:26:00,54.9,51.4,0.00,NNW,338,0.0,1.8,88,0.00,,,0.00,WUHU216HW,2013-05-27 20:26:00,
2013-05-27 13:31:00,55.1,51.8,0.00,WNW,293,2.7,2.7,89,0.00,,,0.00,WUHU216HW,2013-05-27 20:31:00,
2013-05-27 13:36:00,55.3,51.8,0.00,NW,315,0.9,2.7,88,0.00,,,0.00,WUHU216HW,2013-05-27 20:36:00,
2013-05-27 13:41:00,55.3,51.4,0.00,NW,315,0.4,1.8,87,0.00,,,0.00,WUHU216HW,2013-05-27 20:41:00,
2013-05-27 13:46:00,55.3,51.4,0.00,NNW,338,0.0,1.8,87,0.00,,,0.00,WUHU216HW,2013-05-27 20:46:00,
2013-05-27 13:51:00,55.4,51.9,0.00,NNW,338,1.6,1.6,88,0.00,,,0.00,WUHU216HW,2013-05-27 20:51:00,
2013-05-27 13:56:00,55.6,52.4,0.00,NNW,338,3.4,3.4,89,0.00,,,0.00,WUHU216HW,2013-05-27 20:56:00,
2013-05-27 14:01:00,55.6,52.4,0.00,WNW,293,1.8,3.4,89,0.00,,,0.00,WUHU216HW,2013-05-27 21:01:00,
2013-05-27 14:06:00,55.6,52.4,0.00,NW,315,1.3,3.4,89,0.00,,,0.00,WUHU216HW,2013-05-27 21:06:00,
2013-05-27 14:11:00,55.4,51.9,0.00,WSW,248,0.0,1.8,88,0.00,,,0.00,WUHU216HW,2013-05-27 21:11:00,
2013-05-27 14:16:00,55.6,52.1,0.00,WNW,293,0.0,2.2,88,0.00,,,0.00,WUHU216HW,2013-05-27 21:16:00,
2013-05-27 14:21:00,55.8,52.3,0.00,NW,315,0.4,2.2,88,0.00,,,0.00,WUHU216HW,2013-05-27 21:21:00,
2013-05-27 14:26:00,56.0,52.1,0.00,NW,315,0.0,0.4,87,0.00,,,0.00,WUHU216HW,2013-05-27 21:26:00,
2013-05-27 14:31:00,56.2,52.3,0.00,West,270,0.0,0.7,87,0.00,,,0.00,WUHU216HW,2013-05-27 21:31:00,
2013-05-27 14:36:00,56.2,52.0,0.00,West,270,0.0,0.7,86,0.00,,,0.00,WUHU216HW,2013-05-27 21:36:00,
2013-05-27 14:41:00,56.2,52.0,0.00,WNW,293,0.0,0.4,86,0.00,,,0.00,WUHU216HW,2013-05-27 21:41:00,
2013-05-27 14:46:00,56.5,52.7,0.00,WNW,293,0.0,0.4,87,0.00,,,0.00,WUHU216HW,2013-05-27 21:46:00,
2013-05-27 14:51:00,56.7,52.6,0.00,SSE,158,0.0,1.1,86,0.00,,,0.00,WUHU216HW,2013-05-27 21:51:00,
2013-05-27 14:56:00,56.9,52.8,0.00,SSE,158,0.0,1.1,86,0.00,,,0.00,WUHU216HW,2013-05-27 21:56:00,
2013-05-27 15:01:00,57.1,52.9,0.00,SSE,158,0.0,0.2,86,0.00,,,0.00,WUHU216HW,2013-05-27 22:01:00,
2013-05-27 15:06:00,57.1,52.9,0.00,SSE,158,0.0,1.1,86,0.00,,,0.00,WUHU216HW,2013-05-27 22:06:00,
2013-05-27 15:11:00,57.2,53.1,0.00,SSW,203,0.4,1.1,86,0.00,,,0.00,WUHU216HW,2013-05-27 22:11:00,
2013-05-27 15:16:00,57.2,52.7,0.00,South,180,0.4,0.7,85,0.00,,,0.00,WUHU216HW,2013-05-27 22:16:00,
2013-05-27 15:21:00,57.2,53.1,0.00,SSW,203,1.1,1.3,86,0.00,,,0.00,WUHU216HW,2013-05-27 22:21:00,
2013-05-27 15:26:00,57.2,52.7,0.00,SSW,203,0.0,1.3,85,0.00,,,0.00,WUHU216HW,2013-05-27 22:26:00,
2013-05-27 15:31:00,57.6,53.7,0.00,SSE,158,0.2,1.8,87,0.00,,,0.00,WUHU216HW,2013-05-27 22:31:00,
2013-05-27 15:36:00,57.6,53.5,0.00,SSE,158,0.0,1.8,86,0.00,,,0.00,WUHU216HW,2013-05-27 22:36:00,
2013-05-27 15:41:00,57.6,53.5,0.00,SSE,158,1.1,1.1,86,0.00,,,0.00,WUHU216HW,2013-05-27 22:41:00,
2013-05-27 15:46:00,57.6,53.5,0.00,ESE,113,0.0,1.1,86,0.00,,,0.00,WUHU216HW,2013-05-27 22:46:00,
2013-05-27 15:51:00,57.6,53.5,0.00,South,180,0.4,1.1,86,0.00,,,0.00,WUHU216HW,2013-05-27 22:51:00,
2013-05-27 15:56:00,57.8,53.7,0.00,SSE,158,0.0,1.6,86,0.00,,,0.00,WUHU216HW,2013-05-27 22:56:00,
2013-05-27 16:01:00,58.0,53.8,0.00,SSE,158,1.6,1.6,86,0.00,,,0.00,WUHU216HW,2013-05-27 23:01:00,
2013-05-27 16:06:00,58.3,53.8,0.00,SSE,158,0.4,1.6,85,0.00,,,0.00,WUHU216HW,2013-05-27 23:06:00,
2013-05-27 16:11:00,59.0,54.5,0.00,SE,135,0.4,1.1,85,0.00,,,0.00,WUHU216HW,2013-05-27 23:11:00,
2013-05-27 16:16:00,59.0,54.2,0.00,SSW,203,0.0,2.2,84,0.00,,,0.00,WUHU216HW,2013-05-27 23:16:00,
2013-05-27 16:21:00,59.4,54.3,0.00,SSE,158,0.0,2.2,83,0.00,,,0.00,WUHU216HW,2013-05-27 23:21:00,
2013-05-27 16:26:00,59.4,54.3,0.00,South,180,0.0,1.3,83,0.00,,,0.00,WUHU216HW,2013-05-27 23:26:00,
2013-05-27 16:31:00,59.4,54.3,0.00,SE,135,0.0,1.3,83,0.00,,,0.00,WUHU216HW,2013-05-27 23:31:00,
2013-05-27 16:36:00,59.4,53.9,0.00,SSE,158,1.1,1.1,82,0.00,,,0.00,WUHU216HW,2013-05-27 23:36:00,
2013-05-27 16:41:00,59.4,53.9,0.00,SE,135,0.7,1.3,82,0.00,,,0.00,WUHU216HW,2013-05-27 23:41:00,
2013-05-27 16:46:00,59.2,54.1,0.00,SW,225,1.3,2.0,83,0.00,,,0.00,WUHU216HW,2013-05-27 23:46:00,
2013-05-27 16:51:00,59.0,53.9,0.00,SE,135,0.0,2.0,83,0.00,,,0.00,WUHU216HW,2013-05-27 23:51:00,
2013-05-27 16:56:00,58.9,53.7,0.00,SE,135,0.2,0.9,83,0.00,,,0.00,WUHU216HW,2013-05-27 23:56:00,
2013-05-27 17:01:00,58.7,53.8,0.00,WNW,293,0.9,0.9,84,0.00,,,0.00,WUHU216HW,2013-05-28 00:01:00,
2013-05-27 17:06:00,58.7,54.2,0.00,SSW,203,0.0,0.9,85,0.00,,,0.00,WUHU216HW,2013-05-28 00:06:00,
2013-05-27 17:11:00,58.7,54.2,0.00,SSW,203,1.1,1.1,85,0.00,,,0.00,WUHU216HW,2013-05-28 00:11:00,
2013-05-27 17:16:00,58.7,54.2,0.00,SSW,203,1.1,1.1,85,0.00,,,0.00,WUHU216HW,2013-05-28 00:16:00,
2013-05-27 17:38:00,59.0,54.9,0.00,South,180,0.0,0.0,86,0.00,,,0.00,WUHU216HW,2013-05-28 00:38:00,
2013-05-27 17:43:00,59.0,54.9,0.00,NW,315,0.0,0.4,86,0.00,,,0.00,WUHU216HW,2013-05-28 00:43:00,
2013-05-27 17:48:00,59.0,55.2,0.00,SSE,158,0.2,1.1,87,0.00,,,0.00,WUHU216HW,2013-05-28 00:48:00,
2013-05-27 17:53:00,59.2,55.4,0.00,SSE,158,0.7,1.1,87,0.00,,,0.00,WUHU216HW,2013-05-28 00:53:00,
2013-05-27 17:58:00,59.2,55.4,0.00,West,270,3.4,3.4,87,0.00,,,0.00,WUHU216HW,2013-05-28 00:58:00,
2013-05-27 18:03:00,59.2,55.1,0.00,SW,225,0.2,3.4,86,0.00,,,0.00,WUHU216HW,2013-05-28 01:03:00,
2013-05-27 18:08:00,59.2,55.1,0.00,South,180,1.8,2.0,86,0.00,,,0.00,WUHU216HW,2013-05-28 01:08:00,
2013-05-27 18:13:00,58.7,54.6,0.00,SSW,203,0.9,2.0,86,0.00,,,0.00,WUHU216HW,2013-05-28 01:13:00,
2013-05-27 18:18:00,58.1,54.3,0.00,NW,315,0.0,1.8,87,0.00,,,0.00,WUHU216HW,2013-05-28 01:18:00,
2013-05-27 18:23:00,57.6,53.7,0.00,SSE,158,0.0,2.5,87,0.00,,,0.00,WUHU216HW,2013-05-28 01:23:00,
2013-05-27 18:28:00,57.6,53.7,0.00,SSE,158,0.0,2.5,87,0.00,,,0.00,WUHU216HW,2013-05-28 01:28:00,
2013-05-27 18:33:00,57.6,53.7,0.00,SE,135,0.2,0.2,87,0.00,,,0.00,WUHU216HW,2013-05-28 01:33:00,
2013-05-27 18:38:00,57.6,54.1,0.00,NNW,338,0.7,0.7,88,0.00,,,0.00,WUHU216HW,2013-05-28 01:38:00,
2013-05-27 18:43:00,57.6,54.1,0.00,WNW,293,0.7,1.6,88,0.00,,,0.00,WUHU216HW,2013-05-28 01:43:00,
2013-05-27 18:48:00,57.6,54.1,0.00,SSW,203,0.0,1.6,88,0.00,,,0.00,WUHU216HW,2013-05-28 01:48:00,
2013-05-27 18:53:00,57.6,54.1,0.00,ESE,113,1.1,1.6,88,0.00,,,0.00,WUHU216HW,2013-05-28 01:53:00,
2013-05-27 18:58:00,57.4,53.9,0.00,WNW,293,1.1,1.1,88,0.00,,,0.00,WUHU216HW,2013-05-28 01:58:00,